Temperature
13 14 14 14 14 13 13 12 12 13 13 14 14 14 15 16 16 16 16 16 16 16 16 16 16 16 16 16 16 16 16 16 15 15 15 15 15 15 15 15 15 15 15 15
13 13 13 14 14 14 13 13 13 13 13 14 14 15 15 15 15 16 16 16 16 16 16 16 16 16 16 16 16 16 16 16 15 15 15 15 15 15 15 15 15 15 15 15
11 12 13 13 14 13 13 13 13 13 13 13 13 14 15 15 15 16 16 16 16 16 16 16 16 16 16 16 16 15 15 15 15 15 15 15 15 15 15 15 15 15 15 14
10 12 12 13 14 14 14 13 13 13 13 13 14 15 15 15 15 15 16 16 15 15 16 16 15 15 16 15 15 15 15 15 15 15 15 15 15 15 15 15 15 15 14 14
9 11 11 13 13 13 13 13 13 13 13 14 14 14 14 15 15 15 15 15 15 15 15 15 15 15 15 15 15 15 15 15 15 15 15 15 15 15 15 15 15 14 14 14
9 11 11 13 14 14 14 13 13 13 13 13 13 12 13 15 15 15 15 15 15 15 15 15 15 15 15 15 15 15 15 15 15 15 14 15 15 14 14 14 14 14 14 14
9 10 11 12 13 14 13 13 13 13 13 13 12 13 14 14 14 14 15 15 15 15 15 15 15 15 15 15 15 15 14 14 14 14 14 14 14 14 14 14 14 14 14 14
8 10 11 13 12 12 12 13 13 13 13 13 13 13 14 14 14 14 14 14 14 14 14 14 14 14 14 14 15 14 14 14 14 14 14 14 14 14 14 14 14 14 14 14
9 10 12 12 12 13 13 13 13 13 13 13 13 13 13 13 14 14 14 14 14 14 14 14 14 14 14 14 14 14 14 14 14 14 14 14 14 14 14 14 14 14 14 14
9 9 11 12 13 13 13 13 13 13 13 12 12 13 13 13 13 13 13 13 13 13 14 14 14 14 14 14 14 14 14 14 14 14 14 14 14 14 14 14 13 13 13 13
8 9 10 12 12 12 12 13 12 12 12 12 12 12 12 12 13 13 13 13 13 13 13 14 14 14 14 14 13 13 13 14 14 14 14 13 13 13 13 13 13 13 13 13
9 10 10 11 12 12 12 12 12 12 12 12 12 12 12 12 12 12 12 12 12 13 13 13 13 13 13 13 13 13 13 13 13 13 13 13 13 13 13 13 13 13 13 13
11 11 11 11 11 11 11 11 11 11 11 11 11 11 11 11 11 12 12 12 12 12 13 13 13 13 13 13 13 13 13 13 13 13 13 13 13 13 13 13 13 13 13 13
11 11 10 11 11 11 11 11 11 11 11 11 11 11 11 11 11 11 11 12 12 12 12 12 13 13 13 13 13 13 13 13 13 13 13 13 13 13 13 13 13 13 13 13
10 10 10 10 10 10 10 10 10 10 10 10 10 10 10 11 11 11 11 11 12 12 12 12 12 12 12 12 12 12 12 12 12 12 13 13 12 12 12 12 12 12 12 12
10 10 10 10 10 10 10 10 10 10 10 10 10 10 10 10 10 10 10 11 11 11 12 12 12 12 12 12 12 12 12 12 12 12 12 12 12 12 12 12 12 12 12 12
9 9 9 9 9 9 9 9 9 9 9 9 10 10 10 10 10 10 10 11 11 11 11 11 11 11 11 11 11 11 12 12 12 12 11 12 12 12 12 12 12 12 12 12
9 9 9 9 9 9 9 9 9 9 9 9 9 9 9 9 9 9 10 10 10 10 11 11 11 11 11 11 11 11 11 11 11 11 11 11 11 11 11 11 11 12 12 12
9 9 9 9 9 8 9 9 9 9 9 9 9 9 9 9 9 9 9 9 10 10 10 10 10 10 10 10 10 10 10 11 11 10 10 10 10 11 11 11 11 11 11 11
8 8 8 8 8 8 8 8 8 8 8 9 9 9 9 9 9 9 9 9 9 9 9 9 9 10 10 10 10 10 10 10 10 10 10 10 10 10 10 10 10 11 11 11
8 8 8 8 8 8 8 8 8 8 8 8 8 8 8 8 8 8 8 8 9 9 9 9 9 9 9 9 9 9 9 9 9 9 9 9 9 10 10 10 10 10 10 10
7 7 7 7 7 7 7 7 7 7 8 8 8 8 8 7 7 7 8 8 8 8 8 8 9 9 9 9 9 9 9 9 9 9 9 9 9 9 9 9 9 10 9 9
7 7 7 7 7 7 7 7 7 7 7 7 7 7 7 7 7 7 7 7 7 8 8 8 8 8 8 8 8 8 8 8 8 8 8 8 8 8 8 9 9 9 9 9
7 7 7 6 6 6 6 6 7 6 7 7 7 7 6 6 6 7 7 7 7 7 7 7 7 7 8 8 8 8 8 8 8 8 8 8 8 8 8 8 8 8 9 9
6 6 6 6 6 6 6 6 6 6 6 6 6 6 6 6 6 6 6 6 6 6 7 7 7 7 7 7 7 7 7 7 7 7 7 7 7 7 7 8 8 8 8 8
6 6 6 6 6 6 5 5 5 5 5 5 5 5 5 5 6 6 6 6 6 6 6 6 6 6 6 6 7 7 7 7 7 7 7 7 7 7 7 8 8 8 8 8
5 5 5 5 5 5 5 5 5 5 5 5 5 5 5 5 5 5 5 5 5 5 5 5 6 6 6 6 6 6 6 6 6 6 6 7 7 7 7 7 7 7 7 7
Wind_Speed
5 5 4 5 6 5 6 7 8 8 9 10 8 7 7 6 4 4 4 4 4 4 4 3 3 3 3 3 3 4 5 5 5 4 4 5 5 5 5 5 5 4 4 4
3 3 4 5 7 7 7 7 8 8 10 8 6 4 5 5 5 5 6 6 6 5 4 4 4 4 3 3 4 5 5 5 4 4 4 5 5 5 5 5 4 4 5 5
3 4 3 6 7 7 5 5 7 9 10 6 5 6 7 7 6 7 7 6 5 5 5 5 6 6 6 5 5 5 5 5 4 4 5 6 6 6 5 5 5 4 4 4
1 1 5 7 4 5 5 6 7 7 7 6 7 6 5 5 6 6 6 5 5 5 5 5 5 5 4 4 5 5 5 4 4 5 5 5 6 6 5 5 5 5 4 5
3 3 7 6 3 3 4 6 5 6 6 5 3 3 5 4 4 6 6 6 5 5 5 5 5 5 4 4 5 5 5 5 5 5 5 6 7 6 5 5 5 4 5 5
3 4 6 6 3 2 2 5 4 3 4 3 1 2 6 6 5 5 5 4 4 3 3 3 4 4 5 5 6 6 6 6 5 6 6 6 7 6 4 5 5 5 4 5
5 5 8 7 4 2 3 6 4 3 3 3 4 7 7 6 6 5 5 4 3 3 3 4 4 5 6 6 7 7 5 4 5 5 6 5 5 5 5 5 5 5 4 4
4 5 8 3 2 4 5 3 4 4 4 4 6 6 6 5 6 5 5 4 3 3 4 4 4 6 6 7 7 5 5 5 4 5 4 4 5 5 5 6 6 5 4 3
7 7 5 3 4 5 3 4 4 4 6 6 6 7 6 6 6 5 5 5 4 4 4 3 4 6 7 6 5 5 5 5 4 4 4 5 5 6 5 5 5 5 5 4
5 7 7 7 6 6 5 5 5 5 6 6 7 7 7 7 6 5 5 5 4 3 4 4 4 5 6 5 5 6 6 5 5 5 4 4 4 5 6 6 5 5 5 5
6 8 7 7 6 6 6 5 6 6 6 6 6 7 7 7 7 6 6 5 5 4 4 5 5 5 4 4 5 6 6 5 5 5 5 5 4 4 6 6 7 8 7 6
8 8 6 8 7 6 7 8 8 7 7 7 6 7 7 7 7 6 6 5 5 5 4 4 4 4 4 5 6 7 6 5 5 4 4 5 4 3 3 4 6 7 7 7
10 9 8 10 9 8 8 9 9 8 8 8 7 6 6 7 7 6 6 6 6 6 5 4 4 4 4 4 6 7 7 6 5 5 5 5 5 5 4 2 2 4 6 7
7 5 7 8 9 8 8 8 7 7 7 7 7 6 6 6 6 6 6 6 5 5 5 4 3 4 4 4 5 6 6 7 6 6 6 6 6 6 5 5 4 3 4 6
7 6 7 8 7 7 6 5 6 7 6 6 5 5 6 6 6 7 6 6 4 4 4 3 4 4 3 3 5 6 5 5 5 5 5 5 5 5 5 6 5 4 2 3
6 6 5 5 6 6 5 5 6 7 6 6 6 6 7 7 6 5 5 4 3 4 4 3 4 4 3 3 3 4 5 6 6 5 5 5 5 5 5 6 6 5 5 4
4 5 6 6 6 6 6 7 6 6 6 6 7 7 6 5 5 5 5 4 4 4 4 3 3 2 3 3 3 3 4 5 6 5 5 5 5 6 6 6 6 6 5 6
6 6 6 6 6 7 7 6 6 6 6 7 6 5 4 4 5 5 5 4 3 3 3 3 2 2 1 2 3 3 3 4 5 5 5 5 5 5 5 5 6 6 4 5
6 6 6 5 6 6 6 7 7 7 6 5 4 4 4 4 4 4 4 3 3 3 4 3 3 2 2 2 2 2 3 4 4 4 4 4 4 4 5 5 6 6 5 5
6 6 5 5 5 5 6 6 6 6 5 4 3 3 4 4 4 4 3 4 4 4 4 3 2 2 2 3 2 2 3 4 4 4 4 4 4 4 5 5 6 6 6 6
6 5 5 5 6 6 6 5 5 5 4 3 2 3 4 4 4 3 2 4 4 3 3 3 2 2 2 3 3 2 3 4 4 4 5 5 5 5 4 5 5 6 6 6
6 5 5 5 5 6 6 5 4 4 3 3 3 3 3 3 4 3 4 3 4 4 3 2 2 3 3 3 3 3 4 4 4 4 4 5 5 5 5 5 5 5 6 6
6 5 5 5 5 5 6 5 4 3 3 3 3 3 3 3 3 3 4 4 2 4 3 2 3 3 3 2 2 3 4 5 5 4 4 5 5 5 5 5 5 5 5 5
6 5 5 5 4 4 5 6 5 4 3 3 3 3 3 3 3 3 3 4 4 4 3 3 3 3 3 2 2 3 4 4 4 4 4 4 4 5 5 5 5 5 5 6
5 5 4 3 4 4 4 4 4 4 4 3 3 4 3 2 3 3 3 2 3 3 3 3 3 3 2 2 2 3 3 4 4 4 4 4 4 4 4 4 4 5 5 5
4 4 4 4 3 3 3 3 3 3 3 3 4 4 4 3 3 2 2 2 2 3 3 3 2 2 1 1 2 2 2 3 4 4 4 4 4 4 4 5 5 5 5 5
4 4 3 3 3 3 3 3 3 3 3 3 4 4 4 4 3 2 2 2 2 2 2 3 2 1 1 1 1 1 1 2 2 3 3 3 3 4 4 5 5 4 5 5
Wind_Direction
239 248 227 232 240 211 205 206 211 236 241 264 274 273 279 284 285 290 284 277 266 257 256 258 264 243 219 215 201 182 169 173 190 193 184 176 171 170 168 167 171 169 161 163
277 273 260 257 251 230 231 228 235 247 257 263 270 275 277 273 265 266 266 265 266 259 249 245 249 238 215 211 199 178 176 184 178 172 173 175 172 166 161 158 158 159 165 167
268 301 326 266 244 220 219 219 208 228 246 261 268 262 258 259 255 256 261 260 258 254 240 234 236 232 214 204 186 178 183 181 171 170 174 177 171 161 162 163 159 161 169 168
211 22 240 247 246 202 214 237 225 233 248 243 251 259 269 259 245 257 262 262 261 258 252 240 230 227 206 182 177 181 183 179 174 173 177 173 166 170 174 166 166 170 172 172
157 220 270 286 258 189 205 259 238 241 258 265 287 320 303 282 264 258 259 255 253 252 253 242 225 212 180 177 178 179 189 193 185 175 174 173 177 181 177 169 171 172 170 168
161 201 239 246 253 235 143 265 272 248 262 279 355 289 277 292 290 285 283 273 268 269 257 245 233 196 178 187 185 195 201 198 185 177 178 184 188 182 173 171 173 166 163 172
195 224 258 257 272 109 168 247 288 271 272 272 245 244 261 285 290 284 281 277 263 262 244 238 222 188 189 197 205 207 197 182 180 180 181 179 176 173 164 164 158 162 168 176
177 212 250 261 133 182 226 274 294 291 276 270 278 281 279 282 288 289 292 291 276 261 263 248 207 192 198 211 215 195 181 175 179 180 179 165 161 168 164 161 161 168 171 177
200 220 250 259 235 255 252 270 282 278 281 281 289 290 292 289 284 282 283 284 282 269 271 255 213 201 208 220 200 179 175 178 177 174 169 161 162 167 165 166 168 173 176 186
251 265 274 282 284 284 272 270 280 278 280 284 286 288 292 290 285 282 281 280 282 280 267 251 231 217 217 211 187 173 178 183 179 173 172 166 163 164 169 176 177 178 182 190
257 274 289 278 266 273 283 290 297 299 288 274 275 284 289 291 288 286 284 277 268 256 253 252 238 224 215 195 179 176 178 180 182 178 178 175 171 175 179 189 187 183 191 187
244 247 244 265 270 276 285 287 283 287 292 286 277 282 290 289 285 282 281 281 277 270 257 252 241 230 220 197 184 177 179 182 186 182 180 178 174 175 188 186 191 194 190 183
247 258 256 269 275 275 273 278 280 274 270 279 286 278 283 290 290 288 286 282 270 267 264 256 239 232 224 204 192 184 189 191 189 185 182 182 183 182 187 196 186 194 195 192
257 263 273 271 272 277 276 278 283 283 279 274 277 278 282 291 292 290 285 281 276 277 272 256 240 242 236 211 198 193 193 194 191 190 186 186 190 190 187 182 183 205 210 198
268 258 259 274 284 285 281 280 284 289 293 292 285 282 284 285 281 283 290 296 293 285 269 249 240 247 243 213 202 195 193 195 194 189 188 188 188 189 188 186 187 187 180 187
285 290 282 278 281 285 285 278 275 284 290 294 294 290 285 278 278 283 288 287 279 275 265 251 246 249 229 207 205 201 199 194 188 185 183 184 185 188 189 189 191 192 196 191
285 295 296 292 289 288 282 274 270 276 282 285 285 288 291 297 302 299 292 288 276 272 260 246 246 251 227 200 194 200 193 188 186 185 189 190 190 194 193 191 194 200 204 191
260 262 265 265 272 280 286 283 279 278 276 280 286 292 293 285 280 283 288 293 299 294 271 250 232 225 211 198 192 185 182 181 182 190 192 192 194 196 192 193 198 201 199 184
292 284 285 286 279 272 278 283 283 280 279 278 274 274 275 277 276 276 277 279 276 281 277 256 240 202 201 209 196 177 177 181 185 190 189 186 190 196 196 196 200 201 194 186
308 304 306 310 313 308 301 295 289 283 280 272 268 283 294 295 287 280 279 275 265 258 260 258 235 209 203 205 196 188 189 186 187 187 184 188 193 200 205 203 200 197 193 194
308 310 319 321 321 318 310 305 300 293 290 280 267 278 289 295 292 289 285 293 297 298 282 265 237 221 208 204 203 199 199 191 190 194 194 197 202 205 208 207 204 199 198 198
303 306 311 312 314 315 315 314 309 304 301 300 299 294 301 310 314 313 293 274 280 296 304 269 239 230 225 221 204 199 201 196 192 196 202 201 203 206 210 209 208 208 204 200
299 298 302 303 305 312 320 322 318 312 304 299 295 294 299 301 293 285 295 297 294 297 307 275 248 239 242 234 209 200 202 200 198 202 207 205 204 204 207 210 210 209 206 202
301 300 302 307 317 325 322 319 322 318 312 313 307 300 296 301 307 299 287 292 305 308 306 281 260 246 250 230 212 207 204 201 201 203 205 207 205 205 205 207 211 209 205 201
297 300 308 312 311 306 304 314 327 331 334 333 327 319 309 296 288 297 308 308 306 321 324 303 287 270 259 229 216 211 208 205 202 200 200 204 205 206 207 208 211 208 203 203
302 299 294 288 288 294 302 309 311 309 316 324 326 325 326 326 322 316 320 329 335 336 332 322 311 290 264 233 230 227 218 209 211 207 201 206 209 207 209 210 211 211 207 205
311 311 317 324 320 312 305 302 302 304 302 298 309 315 319 322 325 329 332 327 325 331 329 325 320 304 278 256 245 237 224 206 202 203 203 205 209 212 213 214 215 214 213 208
Height
1528 1526 1525 1525 1525 1526 1529 1531 1535 1529 1525 1516 1513 1511 1509 1509 1508 1507 1506 1506 1506 1505 1505 1505 1505 1505 1506 1507 1509 1510 1512 1513 1515 1518 1520 1522 1524 1525 1527 1529 1531 1532 1534 1535
1528 1524 1524 1523 1521 1521 1522 1523 1523 1521 1519 1511 1510 1509 1508 1507 1506 1506 1505 1504 1504 1503 1503 1503 1503 1503 1504 1505 1506 1508 1509 1511 1513 1515 1517 1519 1521 1523 1525 1527 1528 1530 1532 1533
1534 1527 1524 1525 1516 1516 1516 1515 1517 1518 1513 1508 1508 1506 1505 1504 1503 1503 1502 1502 1501 1501 1500 1500 1501 1501 1502 1503 1504 1506 1507 1509 1511 1513 1515 1517 1519 1521 1523 1524 1526 1528 1530 1531
1535 1531 1533 1518 1508 1507 1510 1509 1509 1507 1505 1505 1504 1502 1502 1502 1501 1500 1500 1499 1498 1498 1497 1497 1498 1498 1500 1501 1502 1503 1505 1507 1508 1510 1512 1514 1516 1518 1520 1522 1524 1526 1527 1529
1536 1534 1526 1513 1507 1506 1508 1507 1504 1504 1502 1502 1501 1501 1500 1499 1499 1498 1497 1496 1496 1495 1495 1495 1495 1495 1497 1498 1499 1501 1502 1504 1506 1507 1509 1511 1514 1516 1518 1519 1521 1523 1525 1527
1533 1531 1527 1512 1503 1502 1505 1508 1501 1501 1500 1500 1500 1503 1499 1496 1496 1495 1494 1493 1493 1492 1492 1492 1492 1493 1493 1495 1496 1498 1500 1502 1503 1505 1507 1509 1511 1513 1515 1517 1519 1521 1523 1525
1529 1527 1518 1505 1501 1502 1512 1507 1499 1498 1498 1498 1497 1497 1495 1493 1492 1492 1491 1490 1489 1488 1488 1488 1489 1490 1490 1491 1493 1495 1497 1499 1501 1502 1504 1506 1508 1511 1513 1515 1517 1518 1520 1522
1526 1525 1518 1501 1501 1504 1502 1498 1497 1496 1495 1495 1493 1492 1491 1490 1489 1488 1487 1486 1486 1485 1484 1485 1486 1487 1487 1488 1490 1492 1494 1496 1498 1500 1502 1504 1506 1508 1510 1512 1514 1515 1517 1519
1513 1510 1501 1499 1499 1498 1497 1496 1495 1494 1493 1492 1490 1488 1487 1486 1486 1485 1484 1483 1482 1481 1481 1481 1482 1483 1484 1485 1487 1489 1491 1493 1495 1497 1499 1501 1503 1505 1507 1509 1510 1512 1514 1515
1507 1501 1498 1496 1496 1495 1494 1493 1492 1491 1490 1489 1487 1485 1484 1483 1482 1481 1480 1479 1478 1478 1478 1478 1478 1479 1480 1482 1484 1486 1487 1489 1492 1494 1496 1498 1500 1501 1503 1505 1506 1508 1510 1512
1502 1498 1495 1493 1493 1492 1491 1489 1488 1487 1486 1485 1483 1481 1480 1479 1477 1477 1476 1476 1475 1474 1474 1474 1475 1476 1477 1478 1480 1482 1484 1486 1488 1490 1492 1494 1496 1498 1499 1501 1503 1505 1507 1509
1497 1493 1492 1490 1489 1489 1487 1485 1484 1483 1481 1481 1479 1478 1476 1475 1474 1473 1472 1472 1471 1470 1470 1471 1471 1472 1473 1475 1476 1478 1479 1481 1484 1486 1488 1490 1492 1494 1496 1498 1500 1502 1504 1506
1488 1487 1487 1485 1484 1484 1483 1481 1480 1479 1477 1475 1475 1474 1472 1470 1469 1468 1468 1467 1467 1466 1466 1467 1468 1468 1470 1471 1473 1474 1475 1477 1480 1482 1483 1485 1487 1489 1491 1494 1496 1499 1500 1502
1484 1483 1481 1480 1479 1478 1477 1476 1475 1473 1472 1471 1469 1468 1467 1466 1465 1464 1463 1462 1462 1462 1463 1464 1464 1465 1466 1467 1468 1470 1471 1473 1475 1477 1479 1481 1483 1486 1488 1490 1491 1493 1496 1498
1479 1478 1477 1475 1474 1473 1472 1471 1470 1468 1467 1465 1464 1463 1462 1461 1460 1459 1458 1458 1458 1458 1459 1460 1460 1461 1462 1463 1464 1465 1467 1469 1471 1473 1475 1477 1480 1482 1484 1485 1487 1489 1491 1493
1474 1473 1472 1470 1469 1468 1467 1466 1465 1463 1461 1460 1459 1458 1458 1456 1455 1454 1454 1454 1454 1454 1454 1455 1456 1457 1458 1459 1460 1461 1462 1464 1466 1468 1471 1473 1475 1477 1479 1480 1482 1484 1486 1488
1471 1468 1467 1465 1464 1463 1462 1461 1460 1458 1457 1456 1454 1454 1453 1451 1450 1449 1450 1450 1450 1450 1451 1451 1452 1453 1454 1455 1455 1456 1458 1459 1462 1464 1466 1468 1470 1472 1473 1475 1477 1479 1481 1483
1467 1466 1464 1462 1460 1458 1457 1456 1454 1453 1451 1450 1450 1449 1448 1447 1446 1445 1445 1446 1446 1446 1447 1447 1448 1449 1450 1450 1451 1452 1453 1455 1457 1459 1461 1463 1465 1467 1468 1470 1472 1474 1476 1478
1463 1462 1460 1458 1456 1454 1452 1451 1449 1448 1447 1446 1445 1444 1443 1443 1442 1442 1441 1441 1441 1441 1441 1443 1444 1444 1445 1446 1447 1448 1450 1451 1453 1454 1456 1458 1460 1462 1464 1465 1467 1469 1470 1472
1460 1458 1456 1453 1452 1450 1448 1446 1444 1442 1442 1441 1440 1440 1439 1438 1438 1438 1437 1437 1436 1436 1437 1438 1439 1440 1441 1443 1444 1445 1446 1447 1448 1449 1451 1453 1455 1456 1458 1460 1462 1463 1465 1467
1456 1454 1452 1450 1448 1446 1444 1442 1440 1438 1438 1437 1437 1436 1435 1435 1435 1434 1433 1432 1432 1433 1434 1434 1435 1436 1437 1439 1440 1441 1442 1443 1444 1445 1446 1448 1450 1451 1453 1455 1456 1458 1460 1461
1453 1451 1449 1447 1445 1442 1440 1439 1437 1436 1435 1434 1433 1433 1432 1431 1430 1430 1430 1430 1429 1430 1430 1430 1431 1432 1433 1434 1435 1436 1438 1439 1439 1441 1441 1443 1444 1446 1448 1449 1451 1453 1455 1456
1450 1448 1446 1444 1442 1440 1438 1436 1435 1434 1432 1431 1430 1429 1428 1428 1427 1427 1426 1427 1426 1426 1426 1427 1427 1428 1429 1430 1430 1432 1433 1434 1435 1436 1437 1438 1439 1441 1442 1444 1446 1448 1449 1451
1448 1446 1443 1442 1439 1437 1435 1433 1432 1431 1430 1429 1428 1427 1426 1425 1424 1424 1424 1423 1423 1423 1423 1423 1423 1424 1425 1425 1426 1427 1428 1429 1430 1431 1432 1433 1434 1436 1437 1439 1441 1443 1445 1446
1445 1443 1441 1439 1437 1435 1433 1432 1430 1429 1427 1426 1426 1425 1424 1423 1422 1421 1420 1420 1420 1420 1419 1419 1419 1420 1420 1421 1421 1422 1423 1424 1426 1427 1428 1429 1430 1431 1433 1435 1436 1438 1439 1441
1442 1440 1439 1437 1436 1434 1432 1430 1428 1426 1425 1424 1423 1422 1421 1421 1420 1419 1418 1417 1417 1416 1416 1415 1415 1415 1416 1416 1417 1418 1419 1420 1421 1422 1423 1424 1425 1427 1428 1430 1432 1433 1434 1435
1440 1438 1436 1435 1433 1432 1430 1428 1427 1425 1424 1422 1421 1420 1420 1419 1418 1417 1415 1415 1414 1413 1412 1412 1412 1412 1412 1413 1413 1414 1415 1415 1417 1418 1419 1420 1421 1422 1424 1425 1427 1428 1429 1430